Tracking 35274 objects as of 10-Sep-2026
HD Live streaming from Space Station
objects crossing your sky now

SKYNET 4E

Track SKYNET 4E now!
SKYNET 4E is classified as:


NORAD ID: 25639
Int'l Code: 1999-009B
Launch date: February 26, 1999
Source: United Kingdom (UK)
Launch site: FRENCH GUIANA (FRGUI)

Used primarily by UK's armed forces, government departments, agencies and other organizations that require secure communications.
Your satellite tracking list
Your tracking list is empty




NASA's NSSDC Master Catalog

Two Line Element Set (TLE):
1 25639U 99009B   26252.55203483 -.00000125  00000-0  00000-0 0  9998
2 25639  12.1206   8.6212 0003212 231.5941 138.0288  0.99029800 51992
Source of the keplerian elements: AFSPC